Weather History for Spokane, WA

Change the Weather History Date:

Saturday, March 29, 2014

  Actual Average Record
Temperature  
Mean Temperature 45 °F 44 °F  
Max Temperature 53 °F 53 °F 70 °F (2004)
Min Temperature 37 °F 35 °F 16 °F (1954)
Degree Days  
Heating Degree Days 20 21  
Month to date heating degree days 736 725  
Since 1 July heating degree days 5779 5554  
Cooling Degree Days 0 0  
Month to date cooling degree days 0 0  
Year to date cooling degree days 0 0  
Moisture  
Dew Point 36 °F    
Average Humidity 67    
Maximum Humidity 89    
Minimum Humidity 44    
Precipitation  
Precipitation T in 0.05 in 0.68 in (1960)
Month to date precipitation 2.88 1.51  
Year to date precipitation 5.70 4.63  
Snow  
Snow 0.00 in 0.10 in 3.90 in (2009)
Month to date snowfall 5.8 3.3  
Since 1 July snowfall 37.6 43.6  
Snow Depth 0.00 in    
Sea Level Pressure  
Sea Level Pressure 29.76 in    
Wind  
Wind Speed 15 mph (SSW)    
Max Wind Speed 29 mph    
Max Gust Speed 35 mph    
Visibility 10 miles    
Events Rain    
T = Trace of Precipitation, MM = Missing Value Source: NWS Daily Summary

Daily Weather History Graph

Daily Weather History Graph

Search for Another Location

Airport:

Trip Planner

Search our weather history database for the weather conditions in past years. The results will help you decide how hot, cold, wet, or windy it might be!

Date:

Astronomy

Mar. 29, 2014 Rise Set
Actual Time 6:34 AM PDT 7:15 PM PDT
Civil Twilight 6:03 AM PDT 7:46 PM PDT
Nautical Twilight 5:26 AM PDT 8:24 PM PDT
Astronomical Twilight 4:48 AM PDT 9:02 PM PDT
Moon 5:50 AM PDT (3/29) 6:24 PM PDT (3/29)
Length of Visible Light 13h 43m
Length of Day
12h 41m
Waning Crescent, 1% of the Moon is Illuminated
Mar 29
Waning Crescent
Mar 30
New
Apr 7
First Quarter
Apr 15
Full
Apr 22
Last Quarter

Hourly Weather History & Observations

Time (PDT) Temp. Windchill Dew Point Humidity Pressure Visibility Wind Dir Wind Speed Gust Speed Precip Events Conditions
12:41 AM 44.1 °F 36.8 °F 41.0 °F 89% 29.73 in 10.0 mi South 16.1 mph 24.2 mph 0.01 in   Overcast
12:53 AM 44.1 °F 37.7 °F 41.0 °F 89% 29.75 in 10.0 mi South 12.7 mph - 0.01 in   Overcast
1:12 AM 43.0 °F 36.8 °F 39.9 °F 89% 29.73 in 10.0 mi South 11.5 mph - N/A   Overcast
1:40 AM 43.0 °F 37.7 °F 39.9 °F 89% 29.72 in 10.0 mi South 9.2 mph - 0.00 in   Mostly Cloudy
1:53 AM 43.0 °F 38.2 °F 39.9 °F 89% 29.75 in 10.0 mi South 8.1 mph - 0.00 in   Mostly Cloudy
2:53 AM 42.1 °F 37.7 °F 39.9 °F 92% 29.75 in 10.0 mi South 6.9 mph - N/A   Overcast
3:53 AM 42.1 °F 37.1 °F 39.9 °F 92% 29.74 in 10.0 mi South 8.1 mph - N/A   Overcast
4:38 AM 43.0 °F 35.7 °F 39.9 °F 89% 29.70 in 10.0 mi SW 15.0 mph 23.0 mph N/A   Overcast
4:53 AM 43.0 °F 35.7 °F 39.9 °F 89% 29.73 in 10.0 mi SW 15.0 mph - N/A   Overcast
5:53 AM 42.1 °F 34.9 °F 39.0 °F 89% 29.75 in 10.0 mi SW 13.8 mph - N/A   Overcast
6:14 AM 42.1 °F 33.9 °F 39.0 °F 89% 29.73 in 10.0 mi SW 17.3 mph - N/A   Overcast
6:53 AM 42.1 °F 33.6 °F 39.0 °F 89% 29.77 in 10.0 mi SW 18.4 mph - N/A   Overcast
7:39 AM 42.1 °F 34.5 °F 37.9 °F 85% 29.75 in 10.0 mi SW 15.0 mph - N/A   Mostly Cloudy
7:53 AM 42.1 °F 34.9 °F 37.9 °F 85% 29.78 in 10.0 mi SW 13.8 mph - N/A   Mostly Cloudy
8:53 AM 43.0 °F 35.4 °F 37.9 °F 82% 29.80 in 10.0 mi SSW 16.1 mph - N/A   Mostly Cloudy
9:53 AM 46.0 °F 39.0 °F 37.0 °F 71% 29.79 in 10.0 mi SW 17.3 mph - N/A   Mostly Cloudy
10:53 AM 48.9 °F - 34.0 °F 56% 29.79 in 10.0 mi SSW 24.2 mph 29.9 mph N/A   Scattered Clouds
11:53 AM 51.1 °F - 33.1 °F 50% 29.78 in 10.0 mi SW 19.6 mph 31.1 mph N/A   Mostly Cloudy
12:53 PM 52.0 °F - 33.1 °F 49% 29.78 in 10.0 mi SSW 19.6 mph 29.9 mph N/A   Mostly Cloudy
1:53 PM 53.1 °F - 33.1 °F 47% 29.77 in 10.0 mi SW 25.3 mph 29.9 mph N/A   Mostly Cloudy
2:53 PM 52.0 °F - 32.0 °F 47% 29.77 in 10.0 mi SW 21.9 mph 27.6 mph N/A   Mostly Cloudy
3:53 PM 52.0 °F - 32.0 °F 47% 29.75 in 10.0 mi SSW 19.6 mph 26.5 mph N/A   Mostly Cloudy
4:53 PM 52.0 °F - 30.9 °F 45% 29.73 in 10.0 mi SW 18.4 mph - N/A   Mostly Cloudy
5:53 PM 51.1 °F - 30.9 °F 46% 29.73 in 10.0 mi SSW 11.5 mph - N/A   Mostly Cloudy
6:53 PM 46.9 °F - 34.0 °F 61% 29.74 in 10.0 mi SW 21.9 mph - 0.00 in Rain Light Rain
7:53 PM 44.1 °F 39.5 °F 33.1 °F 65% 29.75 in 10.0 mi South 8.1 mph - 0.00 in   Partly Cloudy
8:53 PM 43.0 °F 36.8 °F 34.0 °F 71% 29.77 in 10.0 mi SSW 11.5 mph - N/A   Partly Cloudy
9:53 PM 42.1 °F 35.7 °F 33.1 °F 70% 29.78 in 10.0 mi SSW 11.5 mph - N/A   Scattered Clouds
10:53 PM 41.0 °F 32.8 °F 32.0 °F 70% 29.78 in 10.0 mi SSW 16.1 mph - N/A   Partly Cloudy
11:53 PM 39.0 °F 31.4 °F 32.0 °F 76% 29.79 in 10.0 mi South 12.7 mph - N/A   Clear